User: anonymous   Login
Location: Unspecified
(0.0000°N, 0.0000°E)
Time: 19:56:27
(UTC+00:00)
Language:

GALILEO-FM2 - Orbit

View from above orbital plane
View from above orbital plane
View from above satellite
View from above satellite

Ground track
Ground track

The orbit data is extracted from the following two-line orbital elements,

1 37847U 11060B   21025.48610473 -.00000044  00000-0  00000-0 0  9999
2 37847  56.7622  35.1893 0005681 304.1518 236.0006  1.70475539 57561
Epoch (UTC): 25 January 2021 11:39:59
Eccentricity: 0.0005681
inclination: 56.7622°
perigee height: 23205 km
apogee height: 23238 km
right ascension of ascending node: 35.1893°
argument of perigee: 304.1518°
revolutions per day: 1.70475539
mean anomaly at epoch: 236.0006°
orbit number at epoch: 5756

The dashed part of the orbit path shows where the satellite is in the earth's shadow,  

DLR